This demonstration page uses our WeatherBlox Daily Observations layout. Learn more.

Hourly Observations for December 18, 2016

Temp ( °F °C ) Dew Point ( °F °C ) Humidity (%) Winds ( mph kmh ) Pressure ( in mb ) Visibility ( mi km ) Precip ( " mm )
12:54 am 00:54 Clear -7 -21.7 -13 -25 75 75 WNW 5 7 30.53 1034 10 16.0934 0 0
1:54 am 01:54 Clear -7 -21.7 -14 -25.6 71 71 WNW 5 7 30.55 1035 10 16.0934 0 0
2:54 am 02:54 Clear -8 -22.2 -14 -25.6 74 74 Calm 30.58 1035 10 16.0934 0 0
3:54 am 03:54 Clear -9 -22.8 -14 -25.6 78 78 Calm 30.58 1035 10 16.0934 0 0
4:54 am 04:54 Clear -10 -23.3 -15 -26.1 78 78 Calm 30.59 1036 10 16.0934 0 0
5:54 am 05:54 Clear -11 -23.9 -16 -26.7 78 78 Calm 30.6 1036 10 16.0934 0 0
6:54 am 06:54 Clear -11 -23.9 -16 -26.7 78 78 Calm 30.62 1037 10 16.0934 0 0
7:54 am 07:54 Sunny -10 -23.3 -16 -26.7 74 74 SSW 3 6 30.64 1038 10 16.0934 0 0
8:54 am 08:54 Sunny -8 -22.2 -13 -25 78 78 SSW 7 11 30.66 1038 10 16.0934 0 0
9:54 am 09:54 Sunny -1 -18.3 -9 -22.8 68 68 WSW 7 11 30.67 1039 10 16.0934 0 0
10:54 am 10:54 Sunny 4 -15.6 -5 -20.6 66 66 SW 12 19 30.68 1039 10 16.0934 0 0
11:54 am 11:54 Sunny 8 -13.3 -2 -18.9 63 63 SSW 8 13 30.64 1038 10 16.0934 0 0
12:54 pm 12:54 Sunny 10 -12.2 -1 -18.3 61 61 SSW 16 26 30.63 1037 10 16.0934 0 0
1:54 pm 13:54 Sunny 11 -11.7 2 -16.7 67 67 SSW 13 20 30.63 1037 10 16.0934 0 0
2:54 pm 14:54 Sunny 13 -10.6 2 -16.7 61 61 SW 12 19 30.6 1036 10 16.0934 0 0
3:54 pm 15:54 Sunny 13 -10.6 3 -16.1 64 64 SSW 13 20 30.62 1037 10 16.0934 0 0
4:54 pm 16:54 Sunny 11 -11.7 3 -16.1 70 70 S 12 19 30.63 1037 10 16.0934 0 0
5:54 pm 17:54 Clear 6 -14.4 0 -17.8 76 76 S 9 15 30.65 1038 10 16.0934 0 0
6:54 pm 18:54 Clear 6 -14.4 0 -17.8 76 76 S 5 7 30.66 1038 10 16.0934 0 0
7:54 pm 19:54 Clear 2 -16.7 -2 -18.9 83 83 SSE 9 15 30.67 1039 10 16.0934 0 0
8:54 pm 20:54 Clear 5 -15 0 -17.8 79 79 S 8 13 30.66 1038 10 16.0934 0 0
9:54 pm 21:54 Clear 4 -15.6 -1 -18.3 80 80 S 8 13 30.67 1039 10 16.0934 0 0
10:54 pm 22:54 Clear 4 -15.6 -1 -18.3 80 80 S 8 13 30.67 1039 10 16.0934 0 0
11:54 pm 23:54 Clear 5 -15 0 -17.8 79 79 S 7 11 30.67 1039 10 16.0934 0 0

Powered by AerisWeather